This demonstration page uses our WeatherBlox Daily Observations layout. Learn more.

Left ArrowRight Arrow

Hourly Observations for April 4, 2022

Temp ( °F °C ) Dew Point ( °F °C ) Humidity (%) Winds ( mph kmh ) Pressure ( in mb ) Visibility ( mi km ) Precip ( " mm )
3:11 am 03:11 Cloudy with Heavy Rain 51 10.6 50 10 96 96 E 9 15 29.90 1012 3 4 0.12 3.05
3:18 am 03:18 Cloudy with Light Rain 51 10.6 50 10 96 96 ESE 8 13 29.90 1012 6 10 0.14 3.56
3:52 am 03:52 Cloudy with Light Rain 50 10 49 9.4 96 96 ESE 6 9 29.87 1011 6 10 0.16 4.06
4:52 am 04:52 Cloudy 50 10 49 9.4 96 96 SE 13 20 29.83 1010 10 16 0.02 0.51
5:52 am 05:52 Cloudy 50 10 49 9.4 96 96 N 6 9 29.88 1012 10 16 0.00 0.00
6:52 am 06:52 Mostly Cloudy 50 10 48 8.9 93 93 NW 6 9 29.89 1012 8 13 0.00 0.00
7:52 am 07:52 Partly Cloudy with Mist and Fog 49 9.4 49 9.4 100 100 Calm 29.89 1012 5 8 0.00 0.00
8:52 am 08:52 Sunny 51 10.6 50 10 96 96 N 7 11 29.90 1013 9 14 0.00 0.00
9:10 am 09:10 Mostly Sunny 52 11.1 50 10 93 93 N 8 13 29.92 1013 10 16 0.00 0.00
9:52 am 09:52 Mostly Cloudy 54 12.2 51 10.6 90 90 N 7 11 29.91 1013 10 16 0.00 0.00
10:39 am 10:39 Mostly Cloudy 55 12.8 51 10.6 87 87 N 9 15 29.93 1013 10 16 0.00 0.00
10:52 am 10:52 Mostly Cloudy 56 13.3 52 11.1 87 87 N 8 13 29.93 1013 10 16 0.00 0.00
11:00 am 11:00 Partly Cloudy 58 14.4 52 11.1 81 81 NNW 7 11 29.93 1014 10 16 0.00 0.00
11:52 am 11:52 Sunny 60 15.6 50 10 70 70 NE 9 15 29.90 1013 10 16 0.00 0.00
12:52 pm 12:52 Sunny 63 17.2 47 8.3 56 56 VRB 3 6 29.88 1012 10 16 0.00 0.00
1:52 pm 13:52 Sunny 64 17.8 43 6.1 46 46 undefined N/A 29.88 1012 10 16 0.00 0.00
2:52 pm 14:52 Mostly Sunny 65 18.3 41 5 42 42 Calm 29.87 1011 10 16 0.00 0.00
3:52 pm 15:52 Mostly Cloudy 63 17.2 42 5.6 47 47 VRB 3 6 29.83 1010 10 16 0.00 0.00
4:52 pm 16:52 Cloudy 64 17.8 40 4.4 41 41 Calm 29.82 1010 10 16 0.00 0.00
5:52 pm 17:52 Cloudy 61 16.1 46 7.8 58 58 S 8 13 29.80 1009 10 16 0.00 0.00
6:52 pm 18:52 Cloudy 59 15 48 8.9 67 67 S 6 9 29.80 1009 10 16 0.00 0.00
7:52 pm 19:52 Cloudy with Light Rain 56 13.3 52 11.1 87 87 S 3 6 29.81 1009 10 16 0.03 0.76
8:52 pm 20:52 Cloudy 57 13.9 53 11.7 87 87 ENE 5 7 29.79 1009 10 16 0.00 0.00
9:52 pm 21:52 Cloudy 56 13.3 53 11.7 90 90 ESE 5 7 29.77 1008 10 16 0.00 0.00
10:52 pm 22:52 Cloudy 56 13.3 52 11.1 87 87 SE 5 7 29.77 1008 10 16 0.00 0.00
11:52 pm 23:52 Cloudy 55 12.8 52 11.1 90 90 SE 7 11 29.74 1007 10 16 0.00 0.00

Powered by AerisWeather